Regional Weather Roundup
Issued by NWS

Home | Current Version | Previous Version | Graphics & Text | Print | Product List | Glossary On
Versions: 1 2 3 4 5 6 7 8 9 10 11 12 13 14 15 16 17 18 19 20 21 22 23 24 25 26 27 28 29 30 31 32 33 34 35 36 37 38 39 40 41 42 43 44 45 46 47 48 49 50
000
ASUS43 KMPX 271810
RWRMN
WEATHER ROUNDUP FOR MINNESOTA
NATIONAL WEATHER SERVICE TWIN CITIES/CHANHASSEN MN
100 PM CDT TUE JUN 27 2017


NOTE: "FAIR" INDICATES FEW OR NO CLOUDS BELOW 12,000 FEET WITH NO
SIGNIFICANT WEATHER AND/OR OBSTRUCTIONS TO VISIBILITY. N/A MEANS
CURRENT SKY AND/OR WEATHER CONDITIONS ARE NOT AVAILABLE.

MNZ060>063-068>070-271900-
   Twin Cities Metro

CITY           SKY/WX    TMP DP  RH WIND       PRES   REMARKS
TWIN CITIES    PTSUNNY   73  41  31 SW13G21   30.01F
6HR MIN TEMP:  56; 6HR MAX TEMP:  74;

ST PAUL        MOSUNNY   73  45  36 S9G20     30.01F
CRYSTAL        SUNNY     73  41  31 S12G20    29.99F
BLAINE         MOSUNNY   75  45  33 SW9       29.99F
LAKEVILLE      MOSUNNY   72  45  37 S10       30.02F
EDEN PRAIRIE   PTSUNNY   75  44  33 S17G24    29.99F
6HR MIN TEMP:  54; 6HR MAX TEMP:  75;

SOUTH ST PAUL  MOSUNNY   73  42  32 S9G17     30.01F
LAKE ELMO      FAIR      72  46  40 SW13G18   30.02F
$$
MNZ001>005-007-008-013>017-022>024-027-028-271900-
   Northwest Minnesota

CITY           SKY/WX    TMP DP  RH WIND       PRES   REMARKS
BEMIDJI        MOSUNNY   71  44  37 S14G22    29.88F
HALLOCK        MOSUNNY   72  48  43 S22       29.75F
ROSEAU         SUNNY     72  50  46 SW15G24   29.81F
WARROAD        SUNNY     72  50  46 SW10G20   29.83F
THIEF RVR FALL PTSUNNY   72  42  34 S21G28    29.82F
CROOKSTON      MOSUNNY   75  45  33 S20G28    29.79F
FOSSTON        CLOUDY    66  43  42 S16       29.85F
DETROIT LAKES  PTSUNNY   70  43  37 SW17      29.88F
MOORHEAD       CLOUDY    73  41  31 S22       29.83F
PARK RAPIDS    MOSUNNY   72  40  31 S16G28    29.91F
MAHNOMEN       FAIR      71  44  37 S16G24    29.85F
$$
MNZ006-009>011-018-025>026-271900-
   North Central Minnesota

CITY           SKY/WX    TMP DP  RH WIND       PRES   REMARKS
BAUDETTE       SUNNY     72  46  39 SW16G24   29.84F
FLAG ISLAND    SUNNY     72  48  43 S12       29.81F
INTL FALLS     SUNNY     72  45  37 S10G22    29.86F
6HR MIN TEMP:  49; 6HR MAX TEMP:  72;

WASKISH        MOSUNNY   72  45  37 S7        29.86F
BIG FORK       SUNNY     73  48  40 S12G18    29.90F
LONGVILLE      SUNNY     72  45  37 S13G18    29.93F
GRAND RAPIDS   SUNNY     69  43  38 SW8G17    29.95F
CRANE LAKE     MOSUNNY   68  43  40 SW7       29.91F
ORR            SUNNY     72  41  33 S8G17     29.89F
COOK           MOSUNNY   70  45  40 SW12      29.93F
WALKER         FAIR      69  43  39 S9G20     29.90F
$$
MNZ012-019>021-037-271900-
   Northeast Minnesota

CITY           SKY/WX    TMP DP  RH WIND       PRES   REMARKS
DULUTH         MOSUNNY   72  45  37 SW16G23   29.96F
6HR MIN TEMP:  55; 6HR MAX TEMP:  72;

ELY            SUNNY     70  41  35 SW14      29.92F
HIBBING        MOSUNNY   69  42  37 S9G20     29.93F
EVELETH        CLOUDY    70  33  25 SW12G22   29.95F
DULUTH HARBOR  SUNNY     73  45  35 S18       29.95F
TWO HARBORS    SUNNY     73  52  46 SW13G20   29.93F
SILVER BAY     SUNNY     72  46  40 S14G20    29.93F
GRAND MARAIS     N/A     54  45  71 W12       29.93F
G MARAIS ARPRT MOSUNNY   68  45  42 S10G17    29.94F
$$
MNZ029>031-032-039>041-046>048-054>057-064-271900-
   West Central Minnesota

CITY           SKY/WX    TMP DP  RH WIND       PRES   REMARKS
FERGUS FALLS   CLOUDY    70  45  40 S18G24    29.86F
WHEATON        CLOUDY    72  39  30 SE17      29.89F
MORRIS         PTSUNNY   75  43  31 S20       29.90F
ALEXANDRIA     CLOUDY    70  43  37 S14       29.95F
ELBOW LAKE     FAIR      70  46  42 S17G24    29.91F
WADENA         MOSUNNY   70  45  40 S14G20    29.92F
GLENWOOD       MOSUNNY   72  45  37 S20       29.96F
APPLETON       MOSUNNY   75  41  29 S14G20    29.90F
BENSON         MOSUNNY   73  41  31 S20       29.93F
ORTONVILLE     SUNNY     73  45  35 S15G22    29.89F
MADISON        SUNNY     77  45  31 S18G24    29.91F
WILLMAR        FAIR      73  43  33 S9G18     29.96F
$$
MNZ033>034-036-042>043-049>051-058-059-271900-
   Central Minnesota

CITY           SKY/WX    TMP DP  RH WIND       PRES   REMARKS
ST CLOUD       MOSUNNY   74  39  28 S17       29.97F
6HR MIN TEMP:  49; 6HR MAX TEMP:  74;

SAUK CENTRE    FAIR      72  43  34 S16       29.96F
PAYNESVILLE    PTSUNNY   74  39  28 S10G17    29.97F
AITKIN         SUNNY     70  45  40 S9G17     29.94F
PINE RIVER     SUNNY     72  46  40 S14G21    29.96F
BRAINERD       SUNNY     72  40  31 S16G22    29.95F
STAPLES        MOSUNNY   72  39  30 S16       29.94F
LONG PRAIRIE   FAIR      70  43  37 SE14G21   29.95F
LITTLE FALLS   CLOUDY    70  37  30 S13       29.97F
LITCHFIELD     MOSUNNY   73  46  38 S5        29.98F
BUFFALO        MOSUNNY   73  40  30 S6        30.00F
MAPLE LAKE     CLOUDY    73  44  34 S10G18    30.00F
HUTCHINSON     MOSUNNY   72  46  39 S8        29.99F
$$
MNZ037-044-045-052-053-271900-
   East Central Minnesota

CITY           SKY/WX    TMP DP  RH WIND       PRES   REMARKS
PRINCETON      SUNNY     75  43  31 S12G17    29.99F
MORA           SUNNY     70  41  35 SW10G18   30.00F
CAMBRIDGE      SUNNY     75  52  43 S13       29.98F
RUSH CITY      SUNNY     72  45  37 S10       29.99F HAZE
MOOSE LAKE     SUNNY     70  43  37 SW9G16    29.95F
HINCKLEY       FAIR      72  46  40 SW14      29.99F
CLOQUET        MOSUNNY   70  37  30 S9G20     29.96F
MCGREGOR       SUNNY     70  45  40 S15G21    29.96F
$$
MNZ071>073-080-081-089-090-097-098-271900-
   Southwest Minnesota

CITY           SKY/WX    TMP DP  RH WIND       PRES   REMARKS
MONTEVIDEO     CLOUDY    73  45  35 SW14G24   29.92F
GRANITE FALLS  MOSUNNY   75  44  32 S17       29.95F
CANBY          SUNNY     76  42  29 S10G25    29.92F
MARSHALL       SUNNY     74  44  34 S22G30    29.92F
REDWOOD FALLS  CLOUDY    75  40  28 S15G24    29.95F
OLIVIA         MOSUNNY   73  45  35 S14       29.96F
PIPESTONE      SUNNY     73  45  35 S21G28    29.94F
WINDOM         SUNNY     73  41  31 SE15G23   29.99F
WORTHINGTON    SUNNY     72  45  37 S21G29    29.98F
JACKSON        SUNNY     72  41  33 S13G22    30.01F
TRACY          SUNNY     74  46  36 S14G24    29.96F
SLAYTON        SUNNY     71  44  37 S20G26    29.99F
$$
MNZ065>067-074>077-082>085-091>093-271900-
   South Central Minnesota

CITY           SKY/WX    TMP DP  RH WIND       PRES   REMARKS
MANKATO        SUNNY     72  42  34 S14G20    30.01F
NEW ULM        MOSUNNY   73  41  31 S18G24    29.98F
ST JAMES       MOSUNNY   73  43  33 S14G22    30.00F
FAIRMONT       SUNNY     72  44  36 S13       30.01F
GLENCOE        PTSUNNY   73  44  35 S10G16    29.99F
FARIBAULT      PTSUNNY   73  43  33 S9        30.03F
OWATONNA       MOSUNNY   73  43  33 S14       30.04F
WASECA         MOSUNNY   72  41  33 S14G20    30.04F
ALBERT LEA     SUNNY     72  37  28 S9        30.04F
$$
MNZ078>079-086>088-094>096-271900-
   Southeast Minnesota

CITY           SKY/WX    TMP DP  RH WIND       PRES   REMARKS
ROCHESTER      SUNNY     71  42  35 S15       30.06F
6HR MIN TEMP:  53; 6HR MAX TEMP:  72;

RED WING       SUNNY     75  37  25 SW9       30.02F
STANTON        MOSUNNY   73  42  33 SW10      30.01F
DODGE CENTER   SUNNY     72  39  30 S12G17    30.05F
WINONA         SUNNY     73  43  33 SW5       30.05F
AUSTIN         SUNNY     72  45  37 S9        30.05F
PRESTON        SUNNY     70  43  37 S12       30.07F
$$
ABBREVIATIONS USED IN REMARKS
   TC - TEMPERATURES IN CELSIUS
  WCI - WIND CHILL INDEX
   HX - HEAT INDEX
  VSB - VISIBILITY
$$




USA.gov is the U.S. government's official web portal to all federal, state and local government web resources and services.